Location: Poughquag
(41.6090°N, 73.6820°W)
Time: 04:37:07
(UTC-04:00)

Tiangong 2 - Visible Passes

Search period start: 18 July 2018 00:00
Search period end: 28 July 2018 00:00
Orbit: 386 x 394 km, 42.8° (Epoch: 17 July)

Date Brightness Start Highest point End Pass type
(mag) Time Alt. Az. Time Alt. Az. Time Alt. Az.
18 Jul 1.1 21:57:14 10° WNW 22:00:26 79° N 22:01:59 27° E visible
18 Jul 4.1 23:34:15 10° W 23:34:18 10° W 23:34:18 10° W visible
19 Jul 1.3 20:59:32 10° W 21:02:43 70° N 21:05:53 10° E visible
19 Jul 1.7 22:36:27 10° W 22:39:01 45° WSW 22:39:01 45° WSW visible
20 Jul 1.0 21:38:43 10° WNW 21:41:55 77° SSW 21:43:43 23° ESE visible
21 Jul 2.2 22:18:03 10° W 22:20:45 31° SW 22:20:45 31° SW visible
22 Jul 1.5 21:20:13 10° W 21:23:19 49° SSW 21:25:29 17° SE visible
23 Jul 3.0 21:59:54 10° WSW 22:02:11 18° SSW 22:02:34 18° SSW visible
24 Jul 2.4 21:01:48 10° W 21:04:38 29° SSW 21:07:23 10° SE visible
